Location: Bern�tre
(50.1974°N, 2.0915°E)
Time: 05:01:09
(UTC+00:00)

Cosmos 1092 Rocket - Pass Details

Date: 18 September 2020
Orbit: 955 x 995 km, 82.9° (Epoch: 29 October)

Event Time Altitude Azimuth Distance (km) Brightness Sun altitude
Rises 19:47:55 0° 351° (N) 3,647 7.5 -17.8°
Reaches altitude 10° 19:50:26 10° 354° (N) 2,698 6.7 -18.2°
Maximum altitude 19:56:35 69° 78° (ENE) 1,028 3.9 -19.1°
Enters shadow 20:00:15 26° 156° (SSE) 1,814 5.0 -19.6°
